Location: Unspecified
(45.7810°N, 0.0000°E)
Time: 23:53:07
(UTC+00:00)

ISS - Pass Details

Date: 31 July 2019
Orbit: 410 x 421 km, 51.6° (Epoch: 24 August)

Event Time Altitude Azimuth Distance (km) Brightness Sun altitude
Rises 19:48:42 0° 296° (WNW) 2,376 3.0 -3.6°
Reaches altitude 10° 19:50:54 10° 305° (NW) 1,509 1.1 -3.9°
Maximum altitude 19:54:06 37° 15° (NNE) 669 -2.5 -4.4°
Drops below altitude 10° 19:57:16 10° 85° (E) 1,500 -1.4 -4.8°
Enters shadow 19:58:42 - 91° (E) 2,062 -0.8 -5.1°
